OMS664 OOMS-OPKC

Flight info

Callsign OMS664
Flight time 1h 17m
Altitude 33000
Route MCT G216 LAKIV
Aircraft A20N/M-SDE2E3FGHIRWXY/LB1

Departure

Time 2026-05-03 20:23
Airport Muscat International Airport (OOMS)

Arrival

Time 2026-05-03 21:40
Airport Jinnah International Airport (OPKC)
Time Latitude Longitude Altitude Speed Heading
2026-05-03 20:15 23.60275 58.28435 67 ft 2 kts 85°
2026-05-03 20:15 23.60274 58.28419 67 ft 2 kts 85°
2026-05-03 20:15 23.60273 58.28402 67 ft 2 kts 85°
2026-05-03 20:15 23.60272 58.28395 67 ft 0 kts 85°
2026-05-03 20:16 23.60272 58.28396 67 ft 0 kts 85°
2026-05-03 20:18 23.60273 58.28397 67 ft 0 kts 85°
2026-05-03 20:18 23.60274 58.28417 67 ft 4 kts 81°
2026-05-03 20:18 23.60298 58.28452 67 ft 7 kts 26°
2026-05-03 20:18 23.60356 58.28452 66 ft 8 kts 358°
2026-05-03 20:19 23.60422 58.28445 66 ft 9 kts 353°
2026-05-03 20:19 23.60493 58.28437 66 ft 10 kts 358°
2026-05-03 20:19 23.60547 58.28478 66 ft 10 kts 73°
2026-05-03 20:19 23.60555 58.28562 66 ft 11 kts 84°
2026-05-03 20:20 23.60563 58.28652 66 ft 12 kts 84°
2026-05-03 20:20 23.60570 58.28747 66 ft 12 kts 85°
2026-05-03 20:20 23.60578 58.28846 66 ft 13 kts 84°
2026-05-03 20:20 23.60587 58.28949 66 ft 13 kts 84°
2026-05-03 20:21 23.60630 58.29034 66 ft 13 kts 12°
2026-05-03 20:21 23.60726 58.29022 66 ft 14 kts 357°
2026-05-03 20:21 23.60822 58.28997 66 ft 14 kts 317°
2026-05-03 20:21 23.60842 58.28896 66 ft 14 kts 264°
2026-05-03 20:22 23.60831 58.28760 66 ft 35 kts 265°
2026-05-03 20:22 23.60789 58.28246 66 ft 99 kts 264°
2026-05-03 20:22 23.60711 58.27281 67 ft 152 kts 265°
2026-05-03 20:22 23.60610 58.26040 362 ft 168 kts 265°
2026-05-03 20:23 23.60532 58.24771 865 ft 171 kts 276°
2026-05-03 20:23 23.60985 58.23629 1424 ft 169 kts 318°
2026-05-03 20:23 23.62025 58.23120 1991 ft 169 kts 353°
2026-05-03 20:23 23.63198 58.23455 2283 ft 188 kts 32°
2026-05-03 20:24 23.63933 58.24706 2569 ft 212 kts 74°
2026-05-03 20:24 23.64063 58.26373 2873 ft 228 kts 82°
2026-05-03 20:24 23.64179 58.28144 3116 ft 246 kts 81°
2026-05-03 20:24 23.64322 58.30076 3438 ft 263 kts 81°
2026-05-03 20:25 23.64478 58.32118 3768 ft 279 kts 82°
2026-05-03 20:25 23.64643 58.34273 4250 ft 288 kts 82°
2026-05-03 20:25 23.64807 58.36445 4890 ft 290 kts 81°
2026-05-03 20:25 23.64975 58.38649 5597 ft 291 kts 81°
2026-05-03 20:26 23.65144 58.40837 6264 ft 293 kts 81°
2026-05-03 20:26 23.65316 58.43045 6925 ft 294 kts 81°
2026-05-03 20:26 23.65487 58.45256 7640 ft 295 kts 81°
2026-05-03 20:26 23.65662 58.47494 8387 ft 296 kts 82°
2026-05-03 20:27 23.65833 58.49696 9086 ft 296 kts 82°
2026-05-03 20:27 23.66004 58.51925 9807 ft 296 kts 82°
2026-05-03 20:27 23.66178 58.54180 10443 ft 300 kts 82°
2026-05-03 20:27 23.66359 58.56497 10771 ft 316 kts 82°
2026-05-03 20:28 23.66548 58.58927 11060 ft 332 kts 83°
2026-05-03 20:28 23.66746 58.61497 11394 ft 346 kts 83°
2026-05-03 20:28 23.66945 58.64130 11918 ft 352 kts 83°
2026-05-03 20:28 23.67147 58.66799 12555 ft 355 kts 83°
2026-05-03 20:29 23.67349 58.69477 13177 ft 359 kts 83°
2026-05-03 20:29 23.67553 58.72209 13747 ft 362 kts 83°
2026-05-03 20:29 23.67760 58.74959 14294 ft 366 kts 83°
2026-05-03 20:29 23.67968 58.77718 14846 ft 370 kts 83°
2026-05-03 20:30 23.68222 58.80514 15405 ft 373 kts 80°
2026-05-03 20:30 23.68628 58.83301 15925 ft 376 kts 77°
2026-05-03 20:30 23.69092 58.86140 16419 ft 380 kts 76°
2026-05-03 20:30 23.69564 58.88980 16900 ft 384 kts 76°
2026-05-03 20:31 23.70038 58.91830 17385 ft 387 kts 76°
2026-05-03 20:31 23.70520 58.94739 17857 ft 390 kts 76°
2026-05-03 20:31 23.71002 58.97661 18365 ft 393 kts 76°
2026-05-03 20:31 23.71488 59.00611 18859 ft 396 kts 76°
2026-05-03 20:32 23.71974 59.03565 19335 ft 399 kts 76°
2026-05-03 20:32 23.72461 59.06525 19801 ft 402 kts 76°
2026-05-03 20:32 23.72954 59.09541 20280 ft 405 kts 76°
2026-05-03 20:32 23.73453 59.12590 20752 ft 408 kts 76°
2026-05-03 20:33 23.73952 59.15638 21225 ft 411 kts 76°
2026-05-03 20:33 23.74454 59.18714 21656 ft 414 kts 76°
2026-05-03 20:33 23.74952 59.21770 22104 ft 417 kts 76°
2026-05-03 20:33 23.75462 59.24903 22551 ft 420 kts 75°
2026-05-03 20:34 23.75970 59.28039 22953 ft 423 kts 75°
2026-05-03 20:34 23.76487 59.31220 23329 ft 427 kts 75°
2026-05-03 20:34 23.77007 59.34424 23690 ft 431 kts 75°
2026-05-03 20:34 23.77524 59.37609 24037 ft 434 kts 75°
2026-05-03 20:35 23.78051 59.40862 24412 ft 437 kts 75°
2026-05-03 20:35 23.78579 59.44137 24868 ft 437 kts 75°
2026-05-03 20:35 23.79107 59.47414 25242 ft 439 kts 75°
2026-05-03 20:35 23.79632 59.50668 25536 ft 443 kts 75°
2026-05-03 20:36 23.80165 59.53992 25848 ft 446 kts 75°
2026-05-03 20:36 23.80702 59.57360 26158 ft 449 kts 75°
2026-05-03 20:36 23.81237 59.60733 26460 ft 452 kts 75°
2026-05-03 20:36 23.81771 59.64082 26756 ft 455 kts 74°
2026-05-03 20:37 23.82317 59.67522 27029 ft 458 kts 75°
2026-05-03 20:37 23.82857 59.70926 27276 ft 462 kts 75°
2026-05-03 20:37 23.83408 59.74409 27616 ft 462 kts 75°
2026-05-03 20:37 23.83948 59.77835 27986 ft 461 kts 74°
2026-05-03 20:38 23.84489 59.81262 28343 ft 461 kts 74°
2026-05-03 20:38 23.85029 59.84700 28651 ft 462 kts 74°
2026-05-03 20:38 23.85574 59.88177 28967 ft 463 kts 74°
2026-05-03 20:38 23.86119 59.91638 29344 ft 463 kts 74°
2026-05-03 20:39 23.86660 59.95072 29729 ft 462 kts 75°
2026-05-03 20:39 23.87205 59.98539 30094 ft 462 kts 75°
2026-05-03 20:39 23.87741 60.01953 30458 ft 461 kts 75°
2026-05-03 20:39 23.88286 60.05427 30810 ft 461 kts 75°
2026-05-03 20:40 23.88823 60.08857 31140 ft 461 kts 74°
2026-05-03 20:40 23.89364 60.12312 31424 ft 463 kts 75°
2026-05-03 20:40 23.89906 60.15774 31689 ft 464 kts 75°
2026-05-03 20:40 23.90443 60.19219 31937 ft 466 kts 75°
2026-05-03 20:41 23.90990 60.22730 32186 ft 467 kts 75°
2026-05-03 20:41 23.91532 60.26223 32456 ft 468 kts 75°
2026-05-03 20:41 23.92073 60.29702 32665 ft 470 kts 75°
2026-05-03 20:42 23.93163 60.36747 32682 ft 471 kts 75°
2026-05-03 20:42 23.94254 60.43821 32687 ft 471 kts 75°
2026-05-03 20:43 23.95334 60.50838 32689 ft 471 kts 75°
2026-05-03 20:43 23.96414 60.57879 32688 ft 471 kts 75°
2026-05-03 20:44 23.97496 60.64952 32687 ft 471 kts 75°
2026-05-03 20:44 23.98561 60.71973 32688 ft 471 kts 75°
2026-05-03 20:45 23.99627 60.79022 32686 ft 471 kts 75°
2026-05-03 20:45 24.00694 60.86071 32688 ft 470 kts 75°
2026-05-03 20:46 24.01757 60.93113 32687 ft 470 kts 75°
2026-05-03 20:46 24.02813 61.00111 32686 ft 470 kts 75°
2026-05-03 20:47 24.03877 61.07178 32687 ft 472 kts 75°
2026-05-03 20:47 24.04940 61.14269 32688 ft 473 kts 75°
2026-05-03 20:48 24.05995 61.21326 32693 ft 473 kts 75°
2026-05-03 20:48 24.07058 61.28440 32694 ft 473 kts 75°
2026-05-03 20:49 24.08100 61.35492 32693 ft 473 kts 75°
2026-05-03 20:49 24.09129 61.42559 32693 ft 472 kts 75°
2026-05-03 20:50 24.10176 61.49689 32697 ft 472 kts 74°
2026-05-03 20:50 24.11244 61.56803 32697 ft 472 kts 74°
2026-05-03 20:51 24.12287 61.63878 32699 ft 471 kts 74°
2026-05-03 20:51 24.13308 61.70921 32692 ft 471 kts 75°
2026-05-03 20:52 24.14334 61.78031 32699 ft 471 kts 75°
2026-05-03 20:52 24.15313 61.85045 32700 ft 471 kts 75°
2026-05-03 20:53 24.16268 61.92135 32700 ft 472 kts 75°
2026-05-03 20:53 24.17228 61.99245 32702 ft 472 kts 75°
2026-05-03 20:54 24.18184 62.06322 32692 ft 472 kts 75°
2026-05-03 20:54 24.19622 62.17001 32680 ft 472 kts 75°
2026-05-03 20:55 24.20572 62.24093 32683 ft 473 kts 75°
2026-05-03 20:55 24.21515 62.31182 32687 ft 473 kts 75°
2026-05-03 20:56 24.22483 62.38425 32687 ft 488 kts 75°
2026-05-03 20:56 24.23479 62.45884 32684 ft 501 kts 75°
2026-05-03 20:57 24.24478 62.53474 32696 ft 508 kts 75°
2026-05-03 20:57 24.25473 62.61095 32698 ft 508 kts 75°
2026-05-03 20:58 24.26475 62.68778 32697 ft 508 kts 76°
2026-05-03 20:58 24.27464 62.76425 32696 ft 510 kts 75°
2026-05-03 20:59 24.28459 62.84103 32696 ft 512 kts 76°
2026-05-03 20:59 24.29453 62.91806 32692 ft 512 kts 75°
2026-05-03 21:00 24.30114 62.96950 32699 ft 512 kts 75°
2026-05-03 21:00 24.31431 63.07209 32697 ft 511 kts 75°
2026-05-03 21:01 24.32423 63.14948 32690 ft 512 kts 75°
2026-05-03 21:01 24.33399 63.22623 32686 ft 511 kts 75°
2026-05-03 21:02 24.34376 63.30342 32686 ft 510 kts 75°
2026-05-03 21:02 24.35348 63.38033 32689 ft 511 kts 75°
2026-05-03 21:03 24.36319 63.45742 32695 ft 512 kts 75°
2026-05-03 21:03 24.37277 63.53410 32697 ft 512 kts 75°
2026-05-03 21:04 24.38242 63.61137 32699 ft 513 kts 75°
2026-05-03 21:04 24.39203 63.68891 32698 ft 513 kts 76°
2026-05-03 21:05 24.40151 63.76639 32700 ft 512 kts 76°
2026-05-03 21:05 24.41102 63.84388 32698 ft 514 kts 76°
2026-05-03 21:06 24.42049 63.92132 32699 ft 513 kts 75°
2026-05-03 21:06 24.42991 63.99851 32695 ft 512 kts 75°
2026-05-03 21:07 24.43925 64.07533 32685 ft 511 kts 75°
2026-05-03 21:07 24.44863 64.15276 32677 ft 512 kts 75°
2026-05-03 21:08 24.45795 64.23008 32676 ft 512 kts 75°
2026-05-03 21:08 24.46717 64.30695 32673 ft 512 kts 75°
2026-05-03 21:09 24.47643 64.38444 32672 ft 512 kts 75°
2026-05-03 21:09 24.48563 64.46175 32673 ft 513 kts 75°
2026-05-03 21:10 24.49483 64.53931 32672 ft 513 kts 75°
2026-05-03 21:10 24.50393 64.61653 32672 ft 514 kts 75°
2026-05-03 21:11 24.51310 64.69493 32672 ft 514 kts 75°
2026-05-03 21:11 24.52212 64.77224 32676 ft 514 kts 75°
2026-05-03 21:12 24.53051 64.85046 32677 ft 517 kts 78°
2026-05-03 21:12 24.53666 64.92881 32677 ft 516 kts 78°
2026-05-03 21:13 24.54262 65.00681 32675 ft 516 kts 78°
2026-05-03 21:13 24.54866 65.08541 32673 ft 516 kts 78°
2026-05-03 21:14 24.55474 65.16360 32671 ft 516 kts 78°
2026-05-03 21:14 24.56068 65.24140 32607 ft 505 kts 78°
2026-05-03 21:15 24.56352 65.27963 32340 ft 495 kts 78°
2026-05-03 21:15 24.56632 65.31692 32094 ft 484 kts 77°
2026-05-03 21:15 24.56906 65.35291 31845 ft 475 kts 77°
2026-05-03 21:15 24.57183 65.38902 31526 ft 471 kts 77°
2026-05-03 21:16 24.57457 65.42469 31140 ft 469 kts 77°
2026-05-03 21:16 24.57730 65.46009 30624 ft 470 kts 78°
2026-05-03 21:16 24.58006 65.49597 30042 ft 470 kts 78°
2026-05-03 21:16 24.58274 65.53147 29468 ft 470 kts 78°
2026-05-03 21:17 24.58540 65.56716 28953 ft 469 kts 78°
2026-05-03 21:17 24.58717 65.59084 28570 ft 469 kts 78°
2026-05-03 21:17 24.59067 65.63800 27866 ft 467 kts 79°
2026-05-03 21:17 24.59332 65.67393 27269 ft 468 kts 80°
2026-05-03 21:18 24.59591 65.70932 26767 ft 465 kts 80°
2026-05-03 21:18 24.59844 65.74449 26375 ft 459 kts 80°
2026-05-03 21:18 24.60096 65.77927 25943 ft 455 kts 80°
2026-05-03 21:18 24.60343 65.81336 25501 ft 451 kts 81°
2026-05-03 21:19 24.60594 65.84797 25059 ft 447 kts 81°
2026-05-03 21:19 24.60836 65.88144 24657 ft 443 kts 81°
2026-05-03 21:19 24.61077 65.91492 24236 ft 439 kts 81°
2026-05-03 21:19 24.61317 65.94807 23813 ft 435 kts 81°
2026-05-03 21:20 24.61554 65.98091 23387 ft 432 kts 82°
2026-05-03 21:20 24.61791 66.01395 22961 ft 428 kts 82°
2026-05-03 21:20 24.62023 66.04620 22543 ft 424 kts 82°
2026-05-03 21:20 24.62249 66.07826 22110 ft 420 kts 82°
2026-05-03 21:21 24.62473 66.11013 21697 ft 416 kts 82°
2026-05-03 21:21 24.62693 66.14133 21285 ft 412 kts 82°
2026-05-03 21:21 24.62915 66.17274 20883 ft 408 kts 82°
2026-05-03 21:21 24.63131 66.20350 20484 ft 404 kts 82°
2026-05-03 21:22 24.63346 66.23418 20073 ft 401 kts 82°
2026-05-03 21:22 24.63556 66.26432 19683 ft 397 kts 82°
2026-05-03 21:22 24.63768 66.29448 19283 ft 394 kts 82°
2026-05-03 21:22 24.63977 66.32432 18887 ft 390 kts 82°
2026-05-03 21:23 24.64181 66.35362 18490 ft 387 kts 82°
2026-05-03 21:23 24.64384 66.38303 18091 ft 384 kts 82°
2026-05-03 21:23 24.64586 66.41219 17688 ft 381 kts 82°
2026-05-03 21:23 24.64786 66.44096 17302 ft 378 kts 82°
2026-05-03 21:24 24.64984 66.46960 16913 ft 375 kts 82°
2026-05-03 21:24 24.65181 66.49809 16490 ft 373 kts 82°
2026-05-03 21:24 24.65373 66.52612 16074 ft 371 kts 82°
2026-05-03 21:24 24.65565 66.55427 15654 ft 368 kts 82°
2026-05-03 21:25 24.65753 66.58223 15226 ft 366 kts 82°
2026-05-03 21:25 24.65938 66.61001 14821 ft 364 kts 82°
2026-05-03 21:25 24.66122 66.63748 14415 ft 361 kts 82°
2026-05-03 21:25 24.66305 66.66496 13992 ft 360 kts 83°
2026-05-03 21:26 24.66489 66.69235 13572 ft 358 kts 83°
2026-05-03 21:26 24.66671 66.71960 13160 ft 355 kts 83°
2026-05-03 21:26 24.66849 66.74646 12739 ft 353 kts 83°
2026-05-03 21:26 24.67028 66.77332 12329 ft 351 kts 84°
2026-05-03 21:27 24.67206 66.79985 11925 ft 349 kts 84°
2026-05-03 21:27 24.67384 66.82656 11520 ft 346 kts 84°
2026-05-03 21:27 24.67556 66.85253 11125 ft 344 kts 84°
2026-05-03 21:27 24.67731 66.87890 10721 ft 342 kts 84°
2026-05-03 21:28 24.67902 66.90473 10329 ft 339 kts 84°
2026-05-03 21:28 24.68072 66.93030 9923 ft 337 kts 84°
2026-05-03 21:28 24.68238 66.95570 9775 ft 325 kts 84°
2026-05-03 21:28 24.68396 66.98002 9710 ft 310 kts 84°
2026-05-03 21:29 24.68545 67.00320 9648 ft 296 kts 84°
2026-05-03 21:29 24.68689 67.02542 9359 ft 294 kts 84°
2026-05-03 21:29 24.69029 67.04747 9025 ft 290 kts 70°
2026-05-03 21:29 24.69846 67.06765 8688 ft 286 kts 58°
2026-05-03 21:30 24.70852 67.08637 8377 ft 283 kts 57°
2026-05-03 21:30 24.71870 67.10476 8081 ft 281 kts 57°
2026-05-03 21:30 24.72884 67.12315 7778 ft 279 kts 57°
2026-05-03 21:30 24.73890 67.14151 7460 ft 277 kts 57°
2026-05-03 21:31 24.74869 67.15949 7172 ft 275 kts 56°
2026-05-03 21:31 24.75852 67.17760 6877 ft 273 kts 56°
2026-05-03 21:31 24.76823 67.19553 6606 ft 271 kts 56°
2026-05-03 21:31 24.77785 67.21331 6314 ft 270 kts 56°
2026-05-03 21:32 24.78740 67.23099 6023 ft 268 kts 56°
2026-05-03 21:32 24.79697 67.24875 5727 ft 266 kts 56°
2026-05-03 21:32 24.80631 67.26603 5444 ft 265 kts 56°
2026-05-03 21:32 24.81568 67.28341 5169 ft 263 kts 55°
2026-05-03 21:33 24.82498 67.30064 4888 ft 261 kts 55°
2026-05-03 21:33 24.83306 67.31561 4651 ft 260 kts 55°
2026-05-03 21:33 24.84226 67.33271 4410 ft 256 kts 54°
2026-05-03 21:33 24.85129 67.34949 4209 ft 251 kts 54°
2026-05-03 21:34 24.86011 67.36588 3984 ft 246 kts 54°
2026-05-03 21:34 24.86940 67.38161 3705 ft 239 kts 41°
2026-05-03 21:34 24.88263 67.39158 3418 ft 227 kts 15°
2026-05-03 21:34 24.89799 67.39417 3145 ft 218 kts 353°
2026-05-03 21:35 24.91257 67.39072 2942 ft 210 kts 343°
2026-05-03 21:35 24.92628 67.38645 2905 ft 196 kts 343°
2026-05-03 21:35 24.93889 67.38206 2892 ft 189 kts 333°
2026-05-03 21:35 24.94870 67.37279 2730 ft 185 kts 309°
2026-05-03 21:36 24.95353 67.35975 2573 ft 180 kts 284°
2026-05-03 21:36 24.95344 67.34663 2531 ft 165 kts 270°
2026-05-03 21:36 24.95140 67.33479 2511 ft 148 kts 266°
2026-05-03 21:36 24.94905 67.32397 2477 ft 144 kts 265°
2026-05-03 21:37 24.94654 67.31325 2433 ft 144 kts 264°
2026-05-03 21:37 24.94396 67.30273 2251 ft 143 kts 263°
2026-05-03 21:37 24.94128 67.29207 2074 ft 143 kts 264°
2026-05-03 21:37 24.93862 67.28160 1899 ft 143 kts 263°
2026-05-03 21:38 24.93591 67.27091 1724 ft 143 kts 263°
2026-05-03 21:38 24.93319 67.26020 1545 ft 144 kts 262°
2026-05-03 21:38 24.93052 67.24966 1363 ft 143 kts 261°
2026-05-03 21:38 24.92782 67.23904 1176 ft 143 kts 260°
2026-05-03 21:39 24.92517 67.22843 989 ft 143 kts 259°
2026-05-03 21:39 24.92243 67.21777 808 ft 144 kts 257°
2026-05-03 21:39 24.91973 67.20722 625 ft 144 kts 258°
2026-05-03 21:39 24.91703 67.19643 431 ft 145 kts 256°
2026-05-03 21:40 24.91435 67.18585 253 ft 144 kts 256°
2026-05-03 21:40 24.91168 67.17509 127 ft 140 kts 254°
2026-05-03 21:40 24.90935 67.16588 106 ft 103 kts 257°
2026-05-03 21:40 24.90797 67.16035 106 ft 42 kts 254°
2026-05-03 21:41 24.90688 67.15769 106 ft 28 kts 221°
2026-05-03 21:41 24.90514 67.15722 106 ft 22 kts 163°
2026-05-03 21:41 24.90366 67.15769 106 ft 21 kts 165°
2026-05-03 21:41 24.90258 67.15852 106 ft 20 kts 78°
2026-05-03 21:42 24.90298 67.15996 106 ft 19 kts 75°
2026-05-03 21:42 24.90331 67.16135 106 ft 18 kts 72°
2026-05-03 21:42 24.90367 67.16269 106 ft 16 kts 75°
2026-05-03 21:42 24.90329 67.16369 106 ft 15 kts 156°
2026-05-03 21:43 24.90303 67.16464 106 ft 15 kts 72°
2026-05-03 21:43 24.90322 67.16549 106 ft 5 kts 86°
2026-05-03 21:43 24.90293 67.16573 106 ft 6 kts 168°
2026-05-03 21:43 24.90245 67.16582 106 ft 6 kts 164°
2026-05-03 21:44 24.90238 67.16585 106 ft 1 kts 163°
2026-05-03 21:44 24.90234 67.16585 106 ft 0 kts 163°